Lawrence, KS

7:43 AM CDT on October 22, 2017 (GMT -0500)
Lawrence Municipal

Weather History for KLWC - August, 2014

Change the Weather History Date:

Thursday, August 28, 2014

  Actual Average Record
Temperature  
Mean Temperature 86 °F 75 °F  
Max Temperature 99 °F 88 °F 100 °F (2007)
Min Temperature 73 °F 62 °F 55 °F (2010)
Degree Days  
Heating Degree Days 0 0  
Month to date heating degree days 0 0  
Since 1 June heating degree days 1 9  
Since 1 July heating degree days 1 1  
Cooling Degree Days 21 10  
Month to date cooling degree days 429 355  
Year to date cooling degree days 1256 1163  
Since 1 June cooling degree days 1063 1044  
Growing Degree Days 36 (Base 50)    
Moisture  
Dew Point 68 °F    
Average Humidity 64    
Maximum Humidity 94    
Minimum Humidity 33    
Precipitation  
Precipitation 0.00 in 0.13 in 0.71 in (2003)
Month to date precipitation 4.32 3.93  
Year to date precipitation 22.94 27.46  
Sea Level Pressure  
Sea Level Pressure 29.89 in    
Wind  
Wind Speed 7 mph (SSE)    
Max Wind Speed 17 mph    
Max Gust Speed 22 mph    
Visibility 9 miles    
Events      
T = Trace of Precipitation, MM = Missing Value Source: NWS Daily Summary

Daily Weather History Graph

Daily Weather History Graph

Search for Another Location

Airport or City:

Trip Planner

Search our weather history database for the weather conditions in past years. The results will help you decide how hot, cold, wet, or windy it might be!

Date:

Astronomy

Aug. 28, 2014 Rise Set
Actual Time 6:46 AM CDT 7:57 PM CDT
Civil Twilight 6:18 AM CDT 8:24 PM CDT
Nautical Twilight 5:45 AM CDT 8:57 PM CDT
Astronomical Twilight 5:11 AM CDT 9:32 PM CDT
Moon 9:37 AM CDT (8/28) 9:23 PM CDT (8/28)
Length of Visible Light 14h 06m
Length of Day
13h 11m
Waxing Crescent, 9% of the Moon is Illuminated
Aug 28
Waxing Crescent
Sep 2
First Quarter
Sep 8
Full
Sep 15
Last Quarter
Sep 24
New

Hourly Weather History & Observations

Time (CDT) Temp. Heat Index Dew Point Humidity Pressure Visibility Wind Dir Wind Speed Gust Speed Precip Events Conditions
12:52 AM 81.0 °F 85.8 °F 73.0 °F 77% 29.98 in 9.0 mi SE 5.8 mph - N/A   Clear
1:52 AM 79.0 °F - 72.0 °F 79% 29.97 in 8.0 mi ESE 6.9 mph - N/A   Clear
2:52 AM 78.1 °F - 72.0 °F 81% 29.95 in 7.0 mi East 6.9 mph - N/A   Clear
3:52 AM 75.9 °F - 73.0 °F 91% 29.94 in 6.0 mi ESE 5.8 mph - N/A   Clear
4:52 AM 77.0 °F - 73.0 °F 88% 29.93 in 6.0 mi SE 4.6 mph - N/A   Clear
5:52 AM 79.0 °F - 72.0 °F 79% 29.93 in 7.0 mi ESE 6.9 mph - N/A   Clear
6:52 AM 78.1 °F - 71.1 °F 79% 29.94 in 8.0 mi SE 3.5 mph - N/A   Clear
10:52 AM 91.0 °F 96.6 °F 70.0 °F 50% 29.94 in 10.0 mi WSW 9.2 mph - N/A   Partly Cloudy
11:52 AM 93.9 °F 98.6 °F 68.0 °F 43% 29.93 in 10.0 mi SW 13.8 mph - N/A   Clear
12:52 PM 95.0 °F 99.5 °F 68.0 °F 41% 29.91 in 10.0 mi South 9.2 mph - N/A   Partly Cloudy
1:52 PM 97.0 °F 100.4 °F 66.0 °F 36% 29.89 in 10.0 mi SW 9.2 mph 20.7 mph N/A   Partly Cloudy
2:52 PM 98.1 °F 101.2 °F 64.9 °F 34% 29.87 in 10.0 mi South 13.8 mph - N/A   Scattered Clouds
3:52 PM 98.1 °F 100.7 °F 64.0 °F 33% 29.84 in 10.0 mi SSW 15.0 mph 21.9 mph N/A   Clear
4:52 PM 98.1 °F 101.2 °F 64.9 °F 34% 29.83 in 10.0 mi South 12.7 mph - N/A   Partly Cloudy
5:52 PM 98.1 °F 100.7 °F 64.0 °F 33% 29.81 in 10.0 mi South 11.5 mph - N/A   Scattered Clouds
6:52 PM 93.0 °F 94.6 °F 64.0 °F 38% 29.81 in 10.0 mi SSE 9.2 mph - N/A   Clear
7:52 PM 84.9 °F 87.1 °F 66.0 °F 53% 29.81 in 10.0 mi SSE 5.8 mph - N/A   Clear
8:52 PM 80.1 °F 82.7 °F 68.0 °F 67% 29.82 in 10.0 mi SSE 4.6 mph - N/A   Clear
9:52 PM 80.1 °F 82.7 °F 68.0 °F 67% 29.84 in 10.0 mi SE 5.8 mph - N/A   Clear
10:52 PM 77.0 °F - 66.0 °F 69% 29.85 in 10.0 mi Calm Calm - N/A   Clear
11:52 PM 75.9 °F - 64.0 °F 67% 29.85 in 10.0 mi Calm Calm - N/A   Scattered Clouds